Wind_Speed
14 14 14 14 14 15 16 16 15 13 10 8 4 4 8 7 6 8 9 9 8 9 9 11 12 11 11 9 8 9 10 12 14 15 16 13 12 10 11 10 7 6 5
12 12 11 12 14 15 15 16 16 16 15 12 10 7 6 7 6 7 8 10 12 11 11 10 12 13 11 8 8 9 8 11 13 16 17 17 14 12 11 10 9 7 6
14 13 12 12 13 14 15 15 15 15 16 14 12 10 8 7 8 7 8 8 10 11 13 11 11 12 13 14 13 11 8 10 11 14 16 17 16 15 12 12 10 9 6
16 17 16 13 12 13 15 15 15 14 14 14 15 13 11 9 7 7 8 9 10 10 10 12 14 12 12 13 13 11 10 11 11 13 15 15 17 15 13 13 13 12 9
14 16 19 19 17 14 13 14 14 13 13 13 13 14 13 12 10 7 7 8 10 10 11 12 13 13 10 13 12 11 10 10 11 13 15 15 16 16 16 14 16 14 12
15 15 16 18 19 18 15 12 12 12 12 13 13 13 14 13 12 11 9 7 9 10 11 12 12 13 12 14 13 12 12 10 11 13 13 14 13 14 15 16 18 17 14
18 17 18 18 18 19 19 16 12 11 11 12 12 12 13 14 13 12 11 9 8 9 11 12 12 13 13 14 13 14 14 13 11 12 13 11 11 9 12 16 16 13 13
19 19 18 18 17 17 18 18 17 13 12 12 12 12 12 12 13 14 13 12 9 8 10 12 12 13 13 14 14 14 14 13 11 11 11 10 8 7 7 10 11 12 10
19 19 19 19 19 17 16 17 19 17 14 13 12 12 12 12 11 12 14 14 13 10 9 10 12 13 14 15 15 13 12 10 11 11 11 11 9 8 7 10 12 12 9
18 19 21 21 21 21 19 18 18 22 18 15 13 12 13 12 12 11 12 14 16 13 10 9 12 13 13 15 15 13 13 9 9 9 11 10 9 8 8 8 9 10 7
21 22 23 25 25 23 22 20 18 21 22 19 17 13 13 13 12 12 11 11 13 15 12 8 10 11 12 14 14 15 12 10 9 8 9 9 9 9 9 9 9 9 8
27 28 29 28 27 26 25 22 19 19 25 26 23 18 14 13 13 12 12 11 11 13 14 12 9 9 10 12 14 13 14 13 12 10 10 9 10 11 10 9 9 8 7
30 30 30 30 29 28 27 26 24 21 21 24 27 25 20 15 14 14 12 11 11 10 12 13 7 10 10 11 14 14 16 15 14 12 11 11 11 11 11 11 10 9 8
33 32 31 31 30 29 29 27 26 25 24 23 25 28 26 20 17 15 15 13 13 12 11 11 11 9 11 10 12 15 17 15 14 12 12 12 12 12 12 12 12 10 10
35 35 35 33 32 32 31 30 28 26 25 26 26 24 26 25 22 18 17 15 14 13 13 12 11 7 10 11 10 15 17 16 16 15 13 13 12 13 13 13 12 12 11
36 36 36 36 35 33 33 34 32 30 28 27 25 26 26 26 24 23 21 18 16 15 14 13 13 11 7 10 10 11 16 18 17 16 14 13 12 13 13 14 13 13 11
32 34 35 36 36 35 33 32 35 33 31 29 28 23 26 27 25 26 24 21 19 19 17 15 13 12 11 8 10 11 15 17 19 18 17 14 13 14 15 15 14 13 12
27 29 31 33 33 33 33 32 32 33 35 34 29 28 25 26 28 28 27 24 25 23 20 18 16 13 12 11 10 12 13 16 17 21 20 18 16 15 17 17 16 14 13
25 27 27 27 27 28 29 30 31 31 33 34 33 31 27 28 24 26 25 29 29 25 23 21 19 16 14 12 11 12 14 15 16 19 22 22 20 17 18 18 17 15 14
27 25 23 24 25 26 26 27 27 29 31 34 34 32 29 27 30 27 27 29 29 28 26 24 21 20 17 14 14 12 14 16 16 18 22 23 21 20 19 19 19 17 15
26 25 24 24 24 24 25 25 26 27 28 31 33 31 26 26 29 32 35 35 33 30 27 25 23 22 21 18 16 17 15 18 19 18 21 23 22 23 20 20 20 18 17
28 26 24 24 24 24 24 24 24 25 27 29 31 31 26 26 29 31 32 34 37 35 31 28 26 25 24 22 20 19 19 19 21 20 21 23 22 23 24 22 23 22 20
28 25 24 24 24 24 24 23 24 25 25 26 27 30 30 31 31 33 35 33 31 31 31 31 31 30 28 26 26 24 21 20 21 20 21 23 23 24 26 25 25 26 23
31 30 27 24 22 23 25 25 23 23 23 23 24 26 29 30 32 33 33 33 32 30 28 29 31 32 31 30 29 28 23 19 21 22 20 21 22 24 27 27 27 26 25
32 32 31 29 25 23 21 21 22 23 23 23 22 22 24 27 30 32 31 31 31 31 29 28 29 31 33 32 31 30 25 21 23 24 21 20 21 23 27 28 28 29 27
29 30 32 32 30 27 24 21 20 22 23 21 20 20 20 20 23 27 29 30 30 31 30 29 29 30 31 32 31 30 26 23 23 24 22 22 22 24 27 29 30 31 30
Wind_Direction
352 353 354 358 359 359 357 360 4 9 8 2 328 278 268 252 252 252 239 243 262 261 261 245 233 228 233 257 282 289 280 266 256 260 265 273 274 272 244 235 226 227 231
339 343 346 344 347 349 348 350 350 352 357 355 349 337 297 280 259 248 248 240 243 253 258 245 239 237 245 226 265 271 284 274 265 259 263 265 269 267 250 235 221 226 231
333 332 331 335 342 345 346 345 345 344 344 347 346 337 326 302 276 258 244 243 241 242 241 251 251 247 244 245 239 265 282 287 279 268 263 264 262 259 250 230 222 221 217
321 319 313 310 319 333 342 346 346 345 344 339 340 344 341 328 303 277 258 244 243 244 239 243 251 250 250 247 254 266 272 283 283 268 265 262 260 257 243 230 225 224 220
319 314 305 301 298 304 320 336 340 343 348 350 348 342 341 341 335 319 284 260 249 247 248 247 245 241 246 254 254 260 273 287 285 272 265 261 258 251 245 235 224 225 227
323 317 312 299 293 289 289 306 323 329 334 339 345 349 351 346 345 336 323 290 258 248 241 244 243 241 242 247 246 259 263 278 288 270 271 272 271 263 248 237 224 226 231
331 325 315 311 299 289 282 281 294 309 320 327 335 340 346 354 353 347 340 324 294 256 246 242 242 240 239 246 251 254 265 270 290 272 268 274 280 280 248 229 220 226 232
327 327 323 316 311 301 285 274 268 281 300 308 318 327 336 343 352 357 352 337 316 275 246 244 241 240 239 240 247 254 263 260 282 282 274 263 265 259 238 222 223 227 234
312 315 319 319 315 312 304 279 261 256 271 289 297 308 320 328 337 345 351 348 335 312 261 242 248 243 236 231 238 245 250 258 278 283 280 268 246 239 231 217 213 218 224
302 305 308 311 311 311 309 300 279 250 248 265 281 296 306 315 322 328 337 341 345 340 307 240 245 248 239 234 234 240 244 264 273 279 276 269 253 239 225 208 209 219 227
298 296 295 297 299 299 300 301 293 263 250 251 261 274 292 302 311 317 324 332 337 342 338 278 247 252 237 239 235 235 250 249 254 273 269 263 245 228 221 210 212 213 225
297 296 294 291 289 290 289 287 287 279 260 253 254 258 268 284 295 305 314 322 328 333 336 334 250 258 250 240 235 233 236 239 246 259 264 248 241 229 215 211 214 220 224
298 294 292 290 287 285 285 282 277 273 271 260 254 255 257 263 277 287 299 310 317 320 326 332 308 253 257 245 235 228 238 238 242 249 263 250 236 228 223 214 216 222 226
298 295 292 289 287 284 282 281 277 271 266 265 260 255 255 256 261 269 280 293 301 309 313 323 327 254 246 249 236 226 236 239 245 251 255 241 231 223 223 216 216 220 225
294 293 292 290 288 284 281 280 277 271 267 265 262 261 254 252 254 260 266 274 285 298 306 314 321 308 246 252 249 235 239 239 241 247 249 246 229 226 219 218 210 216 221
294 291 289 287 284 281 280 277 272 272 269 262 264 263 257 251 244 247 255 263 269 280 291 305 316 323 276 247 249 255 249 243 244 245 248 250 236 227 222 222 216 213 213
295 293 291 288 285 283 279 276 274 268 266 261 257 255 254 257 243 240 245 250 255 262 273 289 300 307 311 281 245 252 261 258 250 247 249 244 236 233 222 220 218 215 211
302 296 292 291 290 286 282 278 273 271 269 264 254 252 242 246 247 246 240 242 244 249 260 271 284 292 295 301 278 246 256 262 256 247 246 243 238 233 231 218 216 214 212
312 307 305 299 294 292 288 283 277 271 267 264 263 254 241 233 245 247 242 239 241 244 249 258 268 277 282 282 284 279 250 256 259 253 247 243 238 231 231 222 215 214 211
325 320 313 307 302 298 293 288 281 275 270 266 262 259 257 246 233 229 237 241 240 242 244 247 254 267 273 272 272 269 267 252 254 255 251 245 239 233 229 227 215 214 210
325 321 319 314 310 305 299 293 290 283 271 266 264 262 260 255 249 242 238 241 244 243 241 241 245 256 266 267 262 260 258 255 251 252 254 249 239 233 227 224 216 212 212
337 326 319 313 310 306 304 301 295 289 280 271 266 262 258 245 242 245 244 240 240 242 242 241 240 245 252 260 262 258 256 257 247 248 249 250 241 233 226 220 215 208 209
352 342 328 319 314 311 307 303 300 294 288 281 272 265 258 250 244 242 244 245 244 243 241 239 238 239 243 248 254 255 255 251 254 243 246 247 242 232 224 217 213 207 205
3 358 351 339 321 305 302 302 299 296 295 287 280 270 261 254 249 246 243 243 244 243 240 236 235 235 237 241 248 252 252 247 244 241 244 246 242 233 224 216 210 207 203
4 4 1 354 347 335 316 294 294 295 293 290 287 279 268 259 253 249 246 243 241 241 240 238 235 231 231 235 240 245 246 236 237 238 240 240 239 232 222 214 206 203 199
357 359 1 0 357 351 341 327 309 285 274 282 285 280 274 267 258 253 249 246 242 241 239 237 231 229 229 232 236 237 237 228 232 234 238 237 233 228 221 214 204 201 197
Height
1520 1518 1515 1513 1511 1508 1505 1504 1502 1501 1500 1498 1497 1496 1495 1495 1495 1496 1497 1498 1499 1499 1500 1501 1502 1504 1506 1507 1509 1509 1509 1509 1509 1508 1507 1505 1507 1507 1508 1508 1509 1512 1511
1519 1517 1516 1514 1512 1510 1507 1504 1503 1501 1499 1498 1497 1495 1494 1493 1493 1493 1494 1495 1496 1497 1498 1498 1499 1502 1503 1504 1506 1507 1506 1506 1505 1506 1504 1503 1504 1506 1505 1506 1506 1510 1510
1517 1515 1514 1513 1513 1511 1509 1506 1504 1502 1500 1498 1497 1495 1493 1491 1492 1492 1491 1491 1493 1494 1496 1496 1497 1498 1499 1501 1501 1503 1502 1503 1502 1502 1502 1501 1501 1503 1503 1504 1505 1508 1508
1515 1514 1513 1512 1511 1511 1509 1507 1505 1503 1500 1498 1496 1494 1493 1491 1490 1489 1489 1489 1490 1491 1491 1492 1494 1494 1495 1496 1499 1499 1498 1499 1499 1499 1498 1498 1498 1500 1499 1502 1504 1506 1507
1514 1513 1511 1510 1509 1509 1508 1507 1505 1503 1501 1499 1497 1494 1492 1491 1489 1488 1487 1487 1486 1487 1487 1488 1489 1491 1491 1493 1495 1495 1495 1496 1496 1496 1495 1496 1495 1496 1496 1499 1503 1504 1504
1512 1510 1508 1507 1506 1505 1505 1505 1504 1503 1501 1499 1498 1495 1492 1491 1487 1487 1485 1485 1485 1484 1484 1485 1486 1486 1488 1490 1492 1492 1493 1493 1494 1493 1492 1493 1492 1493 1494 1496 1499 1500 1503
1508 1507 1505 1504 1503 1502 1501 1502 1502 1501 1500 1499 1497 1495 1493 1490 1488 1486 1483 1482 1481 1480 1480 1481 1481 1483 1484 1486 1487 1489 1491 1491 1491 1490 1490 1491 1489 1490 1492 1495 1496 1499 1500
1505 1504 1503 1501 1500 1498 1497 1498 1498 1498 1498 1497 1496 1494 1492 1490 1487 1485 1483 1481 1480 1478 1477 1479 1479 1480 1481 1483 1485 1486 1487 1487 1487 1487 1488 1489 1488 1489 1490 1493 1496 1497 1498
1501 1500 1499 1498 1496 1495 1493 1493 1493 1494 1494 1494 1493 1492 1490 1488 1486 1485 1483 1481 1478 1477 1476 1476 1477 1477 1478 1480 1481 1482 1483 1483 1484 1485 1486 1488 1487 1488 1490 1492 1493 1495 1495
1496 1496 1495 1493 1492 1491 1490 1488 1488 1488 1489 1490 1490 1489 1488 1487 1485 1483 1482 1480 1478 1476 1474 1473 1473 1474 1474 1475 1477 1479 1480 1482 1482 1483 1485 1486 1487 1488 1489 1492 1493 1494 1495
1491 1490 1489 1488 1486 1486 1485 1484 1483 1482 1483 1484 1485 1486 1486 1485 1483 1481 1480 1478 1476 1474 1472 1470 1470 1470 1471 1472 1474 1476 1478 1479 1480 1482 1483 1484 1487 1487 1489 1491 1493 1493 1495
1484 1482 1481 1480 1479 1478 1477 1478 1478 1477 1477 1478 1479 1481 1482 1482 1481 1479 1478 1476 1474 1472 1470 1467 1467 1467 1468 1469 1470 1473 1474 1477 1479 1481 1483 1483 1485 1487 1488 1489 1491 1492 1494
1476 1474 1472 1471 1470 1469 1468 1468 1469 1469 1469 1470 1472 1473 1476 1477 1477 1476 1475 1475 1473 1471 1469 1467 1465 1465 1466 1466 1468 1471 1472 1475 1477 1479 1480 1482 1483 1484 1487 1488 1490 1490 1492
1466 1465 1464 1462 1461 1460 1459 1459 1459 1459 1460 1462 1463 1465 1467 1469 1471 1471 1472 1471 1470 1469 1467 1466 1465 1464 1465 1465 1466 1468 1469 1472 1475 1477 1478 1479 1481 1481 1484 1486 1488 1489 1491
1457 1455 1453 1452 1452 1450 1450 1449 1449 1450 1451 1451 1453 1456 1458 1460 1463 1465 1465 1466 1466 1465 1464 1463 1463 1462 1461 1462 1464 1465 1466 1469 1471 1474 1475 1476 1477 1479 1482 1484 1486 1488 1490
1446 1444 1442 1441 1440 1439 1438 1437 1439 1439 1441 1442 1444 1446 1448 1450 1454 1456 1458 1459 1460 1460 1460 1459 1459 1459 1458 1458 1459 1462 1463 1466 1468 1470 1472 1474 1475 1477 1479 1482 1484 1486 1488
1437 1434 1431 1430 1428 1428 1428 1427 1425 1428 1429 1431 1434 1437 1439 1441 1444 1447 1450 1452 1453 1454 1455 1455 1455 1455 1455 1455 1456 1457 1460 1462 1465 1467 1469 1471 1473 1474 1477 1479 1482 1485 1487
1430 1426 1423 1421 1419 1418 1417 1417 1417 1416 1416 1419 1424 1426 1430 1433 1435 1437 1440 1443 1444 1446 1449 1451 1451 1452 1452 1452 1451 1453 1455 1458 1461 1463 1465 1468 1470 1472 1475 1476 1480 1483 1485
1422 1418 1416 1413 1411 1409 1408 1408 1408 1408 1407 1408 1410 1415 1419 1423 1426 1428 1431 1432 1435 1439 1442 1444 1446 1447 1448 1448 1448 1449 1451 1453 1456 1459 1461 1464 1467 1469 1472 1474 1477 1480 1483
1415 1413 1410 1407 1404 1402 1400 1399 1398 1398 1398 1398 1399 1403 1407 1412 1415 1418 1421 1422 1426 1430 1434 1437 1440 1442 1443 1443 1444 1445 1446 1448 1451 1454 1456 1458 1462 1465 1468 1472 1474 1478 1481
1411 1407 1405 1401 1398 1396 1394 1392 1390 1389 1389 1389 1390 1393 1397 1401 1403 1406 1410 1413 1416 1420 1424 1429 1432 1435 1437 1438 1438 1440 1441 1443 1445 1448 1450 1453 1457 1461 1464 1468 1472 1476 1479
1407 1403 1399 1396 1393 1390 1387 1385 1383 1382 1380 1379 1380 1383 1387 1390 1392 1394 1397 1401 1405 1409 1414 1419 1423 1426 1429 1431 1432 1433 1435 1437 1439 1443 1445 1448 1452 1456 1460 1464 1468 1472 1476
1405 1399 1394 1390 1387 1384 1381 1379 1376 1374 1372 1371 1372 1372 1375 1377 1380 1383 1386 1390 1394 1398 1403 1408 1412 1416 1420 1423 1424 1426 1428 1430 1433 1437 1440 1442 1446 1450 1454 1458 1463 1468 1473
1405 1398 1392 1387 1383 1379 1375 1372 1370 1368 1365 1364 1363 1363 1364 1366 1368 1371 1375 1379 1383 1388 1392 1396 1400 1405 1410 1414 1416 1418 1421 1425 1428 1431 1434 1437 1441 1445 1449 1453 1459 1464 1470
1404 1398 1392 1385 1379 1374 1369 1366 1363 1360 1358 1357 1356 1355 1355 1356 1358 1361 1364 1369 1373 1377 1381 1386 1390 1395 1400 1403 1407 1411 1414 1418 1421 1425 1429 1431 1435 1439 1444 1448 1454 1460 1466
1404 1398 1391 1385 1378 1371 1366 1360 1356 1354 1352 1350 1349 1348 1348 1349 1350 1352 1355 1358 1362 1367 1371 1376 1380 1386 1390 1394 1398 1402 1406 1411 1415 1419 1423 1426 1429 1433 1438 1443 1449 1456 1462